Weather History for KMSO - October, 2012

Change the Weather History Date:

Wednesday, October 10, 2012

  Actual Average Record
Temperature  
Mean Temperature 47 °F 47 °F  
Max Temperature 66 °F 61 °F 78 °F (1934)
Min Temperature 28 °F 34 °F 10 °F (2009)
Degree Days  
Heating Degree Days 18 18  
Month to date heating degree days 195 158  
Since 1 July heating degree days 364 483  
Cooling Degree Days 0 0  
Month to date cooling degree days 0 0  
Year to date cooling degree days 415 332  
Moisture  
Dew Point 31 °F    
Average Humidity 60    
Maximum Humidity 92    
Minimum Humidity 28    
Precipitation  
Precipitation 0.00 in 0.03 in 0.48 in (1962)
Month to date precipitation 0.41 0.29  
Year to date precipitation 10.92 11.49  
Snow  
Snow 0.00 in - - ()
Month to date snowfall T  
Year to date snowfall 29.2  
Since 1 July snowfall T  
Snow Depth 0.00 in    
Sea Level Pressure  
Sea Level Pressure 30.03 in    
Wind  
Wind Speed 1 mph (ENE)    
Max Wind Speed 7 mph    
Max Gust Speed 8 mph    
Visibility 9 miles    
Events      
T = Trace of Precipitation, MM = Missing Value Source: NWS Daily Summary

Daily Weather History Graph

Daily Weather History Graph

Search for Another Location

Airport or City:

Trip Planner

Search our weather history database for the weather conditions in past years. The results will help you decide how hot, cold, wet, or windy it might be!

Date:

Astronomy

Oct. 10, 2012 Rise Set
Actual Time 7:48 AM MDT 6:57 PM MDT
Civil Twilight 7:17 AM MDT 7:27 PM MDT
Nautical Twilight 6:42 AM MDT 8:02 PM MDT
Astronomical Twilight 6:07 AM MDT 8:38 PM MDT
Moon 2:09 AM MDT (10/10) 4:18 PM MDT (10/10)
Length of Visible Light 12h 10m
Length of Day
11h 09m
Waning Crescent, 26% of the Moon is Illuminated
Oct 10
Waning Crescent
Oct 15
New
Oct 21
First Quarter
Oct 29
Full
Nov 6
Last Quarter

Hourly Weather History & Observations

Time (MDT) Temp. Dew Point Humidity Pressure Visibility Wind Dir Wind Speed Gust Speed Precip Events Conditions
12:53 AM 39.0 °F 32.0 °F 76% 30.10 in 10.0 mi Calm Calm - N/A   Clear
1:53 AM 39.9 °F 30.9 °F 70% 30.09 in 10.0 mi Calm Calm - N/A   Clear
2:53 AM 37.9 °F 30.9 °F 76% 30.10 in 10.0 mi Calm Calm - N/A   Clear
3:53 AM 34.0 °F 28.9 °F 82% 30.09 in 10.0 mi Calm Calm - N/A   Clear
4:53 AM 34.0 °F 28.9 °F 82% 30.09 in 10.0 mi Calm Calm - N/A   Clear
5:53 AM 33.1 °F 28.0 °F 82% 30.10 in 10.0 mi Calm Calm - N/A   Clear
6:53 AM 32.0 °F 28.0 °F 85% 30.10 in 10.0 mi Calm Calm - N/A   Clear
7:53 AM 28.9 °F 27.0 °F 92% 30.11 in 7.0 mi Calm Calm - N/A   Clear
8:53 AM 33.1 °F 28.9 °F 85% 30.12 in 7.0 mi Calm Calm - N/A   Clear
9:53 AM 37.0 °F 32.0 °F 82% 30.12 in 7.0 mi Calm Calm - N/A   Clear
10:53 AM 43.0 °F 30.9 °F 62% 30.10 in 6.0 mi Calm Calm - N/A   Smoke
11:53 AM 46.9 °F 32.0 °F 56% 30.07 in 6.0 mi Calm Calm - N/A   Smoke
12:53 PM 52.0 °F 30.9 °F 45% 30.05 in 6.0 mi Calm Calm - N/A   Smoke
1:53 PM 57.0 °F 32.0 °F 39% 30.00 in 6.0 mi Calm Calm - N/A   Smoke
2:53 PM 60.1 °F 30.9 °F 33% 29.96 in 6.0 mi Calm Calm - N/A   Smoke
3:53 PM 63.0 °F 30.9 °F 30% 29.94 in 7.0 mi Calm Calm - N/A   Clear
4:53 PM 64.9 °F 30.0 °F 27% 29.91 in 9.0 mi Calm Calm - N/A   Clear
5:53 PM 64.0 °F 33.1 °F 31% 29.91 in 9.0 mi SSE 4.6 mph - N/A   Clear
6:53 PM 60.1 °F 33.1 °F 36% 29.92 in 9.0 mi ENE 3.5 mph - N/A   Clear
7:53 PM 53.1 °F 34.0 °F 48% 29.95 in 10.0 mi North 3.5 mph - N/A   Clear
8:53 PM 50.0 °F 34.0 °F 54% 29.96 in 10.0 mi Calm Calm - N/A   Clear
9:53 PM 46.0 °F 33.1 °F 61% 29.98 in 10.0 mi Calm Calm - N/A   Clear
10:53 PM 46.9 °F 33.1 °F 59% 29.98 in 10.0 mi ENE 3.5 mph - N/A   Clear
11:53 PM 41.0 °F 32.0 °F 70% 30.00 in 10.0 mi Calm Calm - N/A   Clear